Regional Weather Roundup
Issued by NWS New Orleans/Baton Rouge, LA

Home | Current Version | Previous Version | Graphics & Text | Print | Product List | Glossary On
Versions: 1 2 3 4 5 6 7 8 9 10 11 12 13 14 15 16 17 18 19 20 21 22 23 24 25 26 27 28 29 30 31 32 33 34 35 36 37 38 39 40 41 42 43 44 45 46 47 48 49 50
043
ASUS44 KLIX 252110
RWRLIX
NEW ORLEANS REGIONAL WEATHER ROUNDUP
NATIONAL WEATHER SERVICE NEW ORLEANS LA
300 PM CST SUN JAN 25 2015

NOTE: "FAIR" INDICATES FEW OR NO CLOUDS BELOW 12,000 FEET WITH NO
      SIGNIFICANT WEATHER AND/OR OBSTRUCTIONS TO VISIBILITY.
      SKY/WX - SKY CONDITION AND SIGNIFICANT WEATHER.
      TMP - AIR TEMPERATURE.     DP    - DEWPOINT TEMPERATURE.
      RH  - RELATIVE HUMIDITY.   PRES  - PRESSURE.
      HI  - HEAT INDEX.          WCI   - WIND CHILL INDEX.

*  THESE STATIONS ARE NOT NWS OR FAA STATIONS AND ARE NOT UNDER
   NWS QUALITY CONTROL.

LAZ038-040-048-061>063-065>067-069-252200-
SOUTHEAST LOUISIANA

CITY           SKY/WX    TMP DP  RH WIND       PRES   REMARKS
N.O. AUDUBON     N/A     64  41  43 MISG        N/A
N.O. INTL ARPT MOSUNNY   67  39  35 SW20G28   29.92S
N.O. LAKEFRONT SUNNY     67  38  34 SW25G32   29.91F
N.O. DOWNTOWN*   N/A     66  37  34 S13G24    29.92F
SLIDELL        SUNNY     65  40  39 SW10G22   29.88F
BATON ROUGE    SUNNY     69  37  30 SW23G32   29.88F
BOOTHVILLE     SUNNY     63  53  70 SW16G24   29.97S
BELLE CHASSE   MOSUNNY   66  31  27 SW18G29   29.93S
BOGALUSA*        N/A     69  37  31 SW14G23   29.86F
GALLIANO*      CLEAR     66  45  46 MISG      29.98R
NEW ROADS*       N/A     67  43  41 SW15      29.88F
GONZALES*        N/A     67  39  36 SW13G22   29.92S
HAMMOND*       SUNNY     68  34  28 SW15G24   29.89S
HOUMA*         SUNNY     64  39  39 W17G29    29.97R
PORT FOURCHON* CLEAR     63  52  67 W14G21    30.03R

$$

MSZ070-080>082-252200-
SOUTHERN MISSISSIPPI

CITY           SKY/WX    TMP DP  RH WIND       PRES   REMARKS
MCCOMB         SUNNY     66  38  35 W16G28    29.83F
GULFPORT       SUNNY     63  42  46 SW13G22   29.88F
BILOXI         SUNNY     62  45  53 SW16      29.89F
PASCAGOULA     SUNNY     60  46  59 SW9G21    29.89F
STENNIS ARPT*  SUNNY     64  34  32 SW14G26   29.89F

$$

COASTAL OBSERVATIONS
LAKE AND NEARSHORE STATIONS

STATION/POSITION TIME  TEMP    WIND        PRES    WAVE
                       AIR SEA DIR/SP/G            HT/PER
                 (UTC) (F)     (DEG/KT/KT) (MB)    (FT/S)
PASCAGOULA       2100   58     220/ 14/ 18 1011.8
WAVELAND YACHT   2100   63     240/  9/ 20 1011.2
GRAND ISLE       2100   62 58  260/ 16/ 23 1015.7
SOUTHWEST PASS   2100   60 47  250/ 20/ 22 1015.6
NEW CANAL        2100   65 53  220/ 12/ 17 1013.0
SHELL BEACH      2100   65 54  230/ 17/ 26 1012.8

OFFSHORE STATIONS

STATION/POSITION TIME  TEMP    WIND        PRES    WAVE
                       AIR SEA DIR/SP/G            HT/PER
                 (UTC) (F)     (DEG/KT/KT) (MB)    (FT/S)
64 S DAUPHIN ISL 2048   63 71  250/ 23/ 29 1014.5    4/ 4

$$




USA.gov is the U.S. government's official web portal to all federal, state and local government web resources and services.